Regional Weather Roundup
Issued by NWS

Home | Current Version | Previous Version | Graphics & Text | Print | Product List | Glossary On
Versions: 1 2 3 4 5 6 7 8 9 10 11 12 13 14 15 16 17 18 19 20 21 22 23 24 25 26 27 28 29 30 31 32 33 34 35 36 37 38 39 40 41 42 43 44 45 46 47 48 49 50
000
ASUS44 KMEG 271810
RWRTN
TENNESSEE HOURLY STATE WEATHER ROUNDUP
NATIONAL WEATHER SERVICE MEMPHIS TN
1200 PM CST TUE JAN 27 2015

TNZ002-004-019-021-049-052-054-088>092-271900-
WEST TENNESSEE

CITY           SKY/WX    TMP DP  RH WIND       PRES   REMARKS
MEMPHIS INTL   MOSUNNY   55  36  48 N9        30.14F
NWS MEMPHIS      N/A     52 N/A N/A MISG        N/A
JACKSON        MOSUNNY   50  34  54 N13       30.12F
DYERSBURG      SUNNY     48  27  43 N10G16    30.16S
UNION CITY     PTSUNNY   43  34  70 N12       30.13F
PARIS          PTSUNNY   43  30  61 N8        30.11F
LEXINGTON      SUNNY     46  30  53 N10       30.09S
SAVANNAH         N/A     48  34  57 N7        30.10F
$$

TNZ008-025-027-028-033-062-065-066-271900-
NORTH MIDDLE TENNESSEE

CITY           SKY/WX    TMP DP  RH WIND       PRES   REMARKS
NASHVILLE      CLOUDY    40  32  73 N9        30.08S WCI  34
CLARKSVILLE    CLOUDY    39  32  76 N10       30.11R WCI  32
SMYRNA         CLOUDY    40  32  73 N12       30.08F WCI  33
COOKEVILLE     PTSUNNY   36  32  87 NW7       30.03S WCI  30
CROSSVILLE     CLOUDY    32  28  85 N8        29.99S WCI  25
$$

TNZ061-075-076-078-094-096-097-271900-
SOUTH MIDDLE TENNESSEE

CITY           SKY/WX    TMP DP  RH WIND       PRES   REMARKS
FAYETTEVILLE   SUNNY     45  30  57 N16       30.03S
TULLAHOMA      CLOUDY    39  30  70 N15       30.03F WCI  31
WINCHESTER     CLOUDY    39  30  70 N10       30.04R WCI  32
MCMINNVILLE    CLOUDY    36  34  93 N8        30.03F WCI  29
COLUMBIA       PTSUNNY   46  37  71 N9        30.05S
SHELBYVILLE    PTSUNNY   43  34  70 N10       30.05F
$$

TNZ017-018-042-046-047-271900-
NORTHEAST TENNESSEE

CITY           SKY/WX    TMP DP  RH WIND       PRES   REMARKS
TRI CITIES     CLOUDY    34  22  61 NW8       29.93F WCI  27
ELIZABETHTON   CLOUDY    30  19  64 VRB6      29.91S WCI  24
$$

TNZ012-013-036-069-073-074-271900-
CENTRAL EAST TENNESSEE

CITY           SKY/WX    TMP DP  RH WIND       PRES   REMARKS
KNOXVILLE      CLOUDY    34  28  79 N5        30.01S WCI  30
OAK RIDGE      CLOUDY    36  30  79 NE5       30.02S WCI  32
GATLINBURG     CLOUDY    34  28  80 W7        29.99S WCI  28
MORRISTOWN     MOCLDY    34  27  75 CALM      29.97S
$$

TNZ083-085-099-271900-
SOUTHEAST TENNESSEE

CITY           SKY/WX    TMP DP  RH WIND       PRES   REMARKS
CHATTANOOGA    PTSUNNY   43  31  62 NW15      30.02S
$$

SKY/WX REPORTED AS FAIR MEANS FEW OR NO CLOUDS BELOW
12 THOUSAND FEET.




USA.gov is the U.S. government's official web portal to all federal, state and local government web resources and services.